This demonstration page uses our WeatherBlox Daily Observations layout. Learn more.

Left ArrowRight Arrow

39.95238, -75.16362

Hourly Observations for February 26, 2017

Temp ( °F °C ) Dew Point ( °F °C ) Humidity (%) Winds ( mph kmh ) Pressure ( in mb ) Visibility ( mi km ) Precip ( " mm )
12:54 am 00:54 Mostly Clear 45 7.2 25 -3.9 46 46 WNW 18 30 29.79 1009 10 16 0.00 0.00
1:54 am 01:54 Partly Cloudy 44 6.7 25 -3.9 47 47 WNW 20 31 29.82 1010 10 16 0.00 0.00
2:54 am 02:54 Clear 41 5 22 -5.6 47 47 WNW 20 31 29.85 1011 10 16 0.00 0.00
3:54 am 03:54 Mostly Clear 39 3.9 20 -6.7 46 46 W 14 22 29.88 1012 10 16 0.00 0.00
4:54 am 04:54 Mostly Cloudy 39 3.9 21 -6.1 48 48 WNW 12 19 29.91 1013 10 16 0.00 0.00
5:54 am 05:54 Mostly Cloudy 38 3.3 20 -6.7 48 48 WNW 16 26 29.95 1014 10 16 0.00 0.00
6:54 am 06:54 Mostly Cloudy 37 2.8 17 -8.3 44 44 WNW 20 31 29.98 1015 10 16 0.00 0.00
7:54 am 07:54 Mostly Cloudy 37 2.8 19 -7.2 48 48 WNW 17 28 30.02 1017 10 16 0.00 0.00
8:54 am 08:54 Mostly Cloudy 37 2.8 17 -8.3 44 44 WNW 21 33 30.06 1018 10 16 0.00 0.00
9:54 am 09:54 Mostly Cloudy 38 3.3 14 -10 37 37 W 22 35 30.08 1019 10 16 0.00 0.00
10:54 am 10:54 Mostly Cloudy 38 3.3 16 -8.9 41 41 W 20 31 30.09 1019 10 16 0.00 0.00
11:54 am 11:54 Partly Cloudy 39 3.9 15 -9.4 38 38 NW 16 26 30.10 1019 10 16 0.00 0.00
12:54 pm 12:54 Partly Cloudy 42 5.6 14 -10 32 32 NW 16 26 30.09 1019 10 16 0.00 0.00
1:54 pm 13:54 Partly Cloudy 43 6.1 15 -9.4 32 32 W 17 28 30.10 1019 10 16 0.00 0.00
2:54 pm 14:54 Partly Cloudy 42 5.6 14 -10 32 32 W 20 31 30.11 1020 10 16 0.00 0.00
3:54 pm 15:54 Partly Cloudy 43 6.1 15 -9.4 32 32 W 15 24 30.13 1020 10 16 0.00 0.00
4:54 pm 16:54 Mostly Sunny 43 6.1 16 -8.9 34 34 W 20 31 30.15 1021 10 16 0.00 0.00
5:54 pm 17:54 Mostly Clear 42 5.6 16 -8.9 35 35 WNW 15 24 30.19 1022 10 16 0.00 0.00
6:54 pm 18:54 Mostly Clear 41 5 17 -8.3 38 38 WNW 9 15 30.22 1024 10 16 0.00 0.00
7:54 pm 19:54 Mostly Clear 40 4.4 16 -8.9 38 38 WNW 10 17 30.25 1024 10 16 0.00 0.00
8:54 pm 20:54 Clear 39 3.9 16 -8.9 39 39 WNW 7 11 30.27 1025 10 16 0.00 0.00
9:54 pm 21:54 Clear 36 2.2 18 -7.8 48 48 WSW 5 7 30.29 1026 10 16 0.00 0.00
10:54 pm 22:54 Clear 37 2.8 17 -8.3 44 44 W 7 11 30.30 1026 10 16 0.00 0.00
11:54 pm 23:54 Clear 34 1.1 17 -8.3 50 50 SSW 5 7 30.30 1026 10 16 0.00 0.00

Powered by AerisWeather